Track IRIDIUM 24 now! 10-day predictions IRIDIUM 24 is classified as:
1 25105U 97082B 24325.84425437 .00000765 00000-0 22864-3 0 9995 2 25105 86.3934 168.6031 0013073 52.3617 307.8767 14.41673994413195